Location: Zagreb
(45.8000°N, 16.0000°E)
Time: 17:44:13
(UTC+01:00)

N. Korean satellite - Pass Details

Date: 04 December 2021
Orbit: 447 x 491 km, 97.3° (Epoch: 23 January)

Event Time Altitude Azimuth Distance (km) Brightness Sun altitude
Rises 04:17:04 0° 30° (NNE) 2,465 10.5 -31.1°
Reaches altitude 10° 04:19:46 10° 54° (NE) 1,583 9.7 -30.6°
Maximum altitude 04:21:52 15° 92° (E) 1,279 9.5 -30.2°
Drops below altitude 10° 04:23:57 10° 131° (SE) 1,571 9.7 -29.9°
Sets 04:26:36 0° 154° (SSE) 2,437 10.5 -29.4°
